Location: DARK SKY Beskydy - Park tmavé oblohy, www.darkskybeskydy.cz
(49.4926°N, 18.5016°E)
Time: 10:54:55
(UTC+02:00)

Vanguard 1 - Pass Details

Date: 02 March 2024
Orbit: 653 x 3825 km, 34.2° (Epoch: 12 April)

Event Time Altitude Azimuth Distance (km) Brightness Sun altitude
Rises 17:50:33 0° 222° (SW) 4,515 14.3 -4.0°
Reaches altitude 10° 17:53:24 10° 213° (SSW) 3,881 13.7 -4.4°
Maximum altitude 18:02:51 35° 152° (SSE) 3,356 12.6 -6.0°
Drops below altitude 10° 18:18:10 10° 97° (E) 6,287 13.5 -8.5°
Enters shadow 18:18:52 - 96° (E) 6,443 13.5 -8.6°
Sets 18:24:26 0° 91° (E) 7,659 - -9.5°
